When you browse on this site, cookies collect data to enhance your experience and personalize the content and advertising you see.
Visit our Privacy Policy to learn more. By continuing to use the site, you agree to this use of cookies and data.
  • In Portugal
  • List of Countries
  • For 7 days
  • Water Temperature
  • Weather Map
  • Weather Widgets
  • user-avatar
    Login

    Hourly Weather Ondjiwa

    Today, 18 November, Monday

    Time Temperature Precipitation Wind Pressure Humidity
    00:00 +25°C° 0 mm 4 mps 664 mmHg 26%
    01:00 +24°C° 0 mm 3 mps 664 mmHg 32%
    02:00 +22°C° 0 mm 3 mps 664 mmHg 32%
    03:00 +21°C° 0 mm 2 mps 664 mmHg 33%
    04:00 +21°C° 0 mm 2 mps 664 mmHg 34%
    05:00 +23°C° 0 mm 2 mps 664 mmHg 30%
    06:00 +24°C° 0 mm 2 mps 665 mmHg 27%
    07:00 +25°C° 0 mm 2 mps 666 mmHg 21%
    08:00 +28°C° 0 mm 2 mps 666 mmHg 18%
    09:00 +30°C° 0 mm 3 mps 667 mmHg 15%
    10:00 +33°C° 0 mm 3 mps 667 mmHg 12%
    11:00 +35°C° 0 mm 3 mps 667 mmHg 12%
    12:00 +36°C° 0 mm 3 mps 666 mmHg 11%
    13:00 +37°C° 0 mm 3 mps 666 mmHg 11%
    14:00 +37°C° 0 mm 3 mps 665 mmHg 11%
    15:00 +37°C° 0 mm 3 mps 665 mmHg 11%
    16:00 +37°C° 0 mm 3 mps 664 mmHg 12%
    17:00 +35°C° 0 mm 3 mps 664 mmHg 13%
    18:00 +32°C° 0 mm 2 mps 664 mmHg 15%
    19:00 +30°C° 0 mm 2 mps 665 mmHg 17%
    20:00 +29°C° 0 mm 3 mps 665 mmHg 18%
    21:00 +28°C° 0 mm 5 mps 665 mmHg 19%
    22:00 +27°C° 0 mm 6 mps 666 mmHg 21%
    23:00 +26°C° 0 mm 5 mps 666 mmHg 22%

    Tomorrow, 19 November, Tuesday

    Time Temperature Precipitation Wind Pressure Humidity
    00:00 +25°C° 0 mm 4 mps 665 mmHg 23%
    01:00 +24°C° 0 mm 3 mps 665 mmHg 24%
    02:00 +23°C° 0 mm 2 mps 665 mmHg 26%
    03:00 +21°C° 0 mm 2 mps 665 mmHg 28%
    04:00 +21°C° 0 mm 2 mps 665 mmHg 30%
    05:00 +23°C° 0 mm 2 mps 666 mmHg 27%
    06:00 +24°C° 0 mm 2 mps 666 mmHg 24%
    07:00 +25°C° 0 mm 2 mps 667 mmHg 20%
    08:00 +27°C° 0 mm 2 mps 667 mmHg 17%
    09:00 +29°C° 0 mm 3 mps 668 mmHg 13%
    10:00 +31°C° 0 mm 3 mps 668 mmHg 9%
    11:00 +32°C° 0 mm 2 mps 668 mmHg 9%
    12:00 +35°C° 0 mm 2 mps 667 mmHg 9%
    13:00 +36°C° 0 mm 2 mps 667 mmHg 9%
    14:00 +36°C° 0 mm 2 mps 666 mmHg 10%
    15:00 +36°C° 0 mm 2 mps 666 mmHg 10%
    16:00 +36°C° 0 mm 2 mps 665 mmHg 11%
    17:00 +34°C° 0 mm 2 mps 665 mmHg 13%
    18:00 +32°C° 0 mm 2 mps 665 mmHg 15%
    19:00 +30°C° 0 mm 1 mps 664 mmHg 17%
    20:00 +29°C° 0 mm 2 mps 665 mmHg 17%
    21:00 +28°C° 0 mm 2 mps 665 mmHg 17%
    22:00 +27°C° 0 mm 3 mps 665 mmHg 18%
    23:00 +26°C° 0 mm 3 mps 665 mmHg 20%

    Day after tomorrow, 20 November, Wednesday

    Time Temperature Precipitation Wind Pressure Humidity
    00:00 +25°C° 0 mm 3 mps 665 mmHg 22%
    01:00 +24°C° 0 mm 3 mps 665 mmHg 24%
    02:00 +24°C° 0 mm 3 mps 664 mmHg 27%
    03:00 +22°C° 0 mm 3 mps 664 mmHg 29%
    04:00 +21°C° 0 mm 2 mps 664 mmHg 32%
    05:00 +23°C° 0 mm 2 mps 665 mmHg 29%
    06:00 +24°C° 0 mm 2 mps 666 mmHg 27%
    07:00 +25°C° 0 mm 2 mps 667 mmHg 24%
    08:00 +27°C° 0 mm 2 mps 667 mmHg 20%
    09:00 +30°C° 0 mm 2 mps 667 mmHg 17%
    10:00 +32°C° 0 mm 2 mps 668 mmHg 13%
    11:00 +34°C° 0 mm 2 mps 667 mmHg 13%
    12:00 +36°C° 0 mm 2 mps 667 mmHg 12%
    13:00 +37°C° 0 mm 2 mps 666 mmHg 12%
    14:00 +37°C° 0 mm 2 mps 666 mmHg 12%
    15:00 +37°C° 0 mm 2 mps 665 mmHg 13%
    16:00 +37°C° 0 mm 2 mps 664 mmHg 13%
    17:00 +35°C° 0 mm 2 mps 664 mmHg 15%
    18:00 +32°C° 0 mm 1 mps 664 mmHg 17%
    19:00 +31°C° 0 mm 1 mps 665 mmHg 19%
    20:00 +30°C° 0 mm 3 mps 665 mmHg 19%
    21:00 +29°C° 0 mm 4 mps 665 mmHg 19%
    22:00 +28°C° 0 mm 5 mps 665 mmHg 19%
    23:00 +27°C° 0 mm 5 mps 665 mmHg 20%

    21 November, Thursday

    Time Temperature Precipitation Wind Pressure Humidity
    00:00 +26°C° 0 mm 4 mps 665 mmHg 21%
    01:00 +25°C° 0 mm 4 mps 665 mmHg 22%
    02:00 +24°C° 0 mm 3 mps 665 mmHg 24%
    03:00 +23°C° 0 mm 2 mps 664 mmHg 26%
    04:00 +21°C° 0 mm 2 mps 664 mmHg 28%
    05:00 +23°C° 0 mm 2 mps 665 mmHg 26%
    06:00 +24°C° 0 mm 2 mps 666 mmHg 24%
    07:00 +25°C° 0 mm 1 mps 667 mmHg 21%
    08:00 +27°C° 0 mm 1 mps 667 mmHg 19%
    09:00 +30°C° 0 mm 1 mps 667 mmHg 16%
    10:00 +32°C° 0 mm 1 mps 668 mmHg 14%
    11:00 +33°C° 0 mm 1 mps 667 mmHg 13%
    12:00 +36°C° 0 mm 2 mps 667 mmHg 13%
    13:00 +37°C° 0 mm 2 mps 666 mmHg 12%
    14:00 +37°C° 0 mm 2 mps 666 mmHg 13%
    15:00 +37°C° 0 mm 3 mps 665 mmHg 13%
    16:00 +36°C° 0 mm 3 mps 665 mmHg 14%
    17:00 +35°C° 0 mm 3 mps 665 mmHg 15%
    18:00 +33°C° 0 mm 3 mps 665 mmHg 17%
    19:00 +30°C° 0 mm 2 mps 665 mmHg 19%
    20:00 +29°C° 0 mm 4 mps 665 mmHg 20%
    21:00 +28°C° 0 mm 5 mps 666 mmHg 21%
    22:00 +27°C° 0 mm 6 mps 666 mmHg 21%
    23:00 +26°C° 0 mm 6 mps 666 mmHg 23%

    22 November, Friday

    Time Temperature Precipitation Wind Pressure Humidity
    00:00 +25°C° 0 mm 5 mps 666 mmHg 25%
    01:00 +23°C° 0 mm 4 mps 665 mmHg 27%
    02:00 +22°C° 0 mm 3 mps 665 mmHg 28%
    03:00 +23°C° 0 mm 2 mps 665 mmHg 29%
    04:00 +22°C° 0 mm 1 mps 665 mmHg 30%
    05:00 +23°C° 0 mm 1 mps 666 mmHg 30%
    06:00 +24°C° 0 mm 1 mps 667 mmHg 30%
    07:00 +24°C° 0 mm 1 mps 667 mmHg 30%
    08:00 +26°C° 0 mm 2 mps 667 mmHg 27%
    09:00 +28°C° 0 mm 2 mps 668 mmHg 24%
    10:00 +29°C° 0 mm 2 mps 668 mmHg 20%
    11:00 +30°C° 0 mm 2 mps 667 mmHg 19%
    12:00 +31°C° 0 mm 2 mps 667 mmHg 18%
    13:00 +32°C° 0 mm 2 mps 666 mmHg 17%
    14:00 +32°C° 0 mm 2 mps 666 mmHg 16%
    15:00 +34°C° 0 mm 2 mps 665 mmHg 16%
    16:00 +34°C° 0 mm 3 mps 665 mmHg 15%
    17:00 +31°C° 0 mm 3 mps 665 mmHg 18%
    18:00 +30°C° 0 mm 2 mps 664 mmHg 20%
    19:00 +28°C° 0 mm 2 mps 664 mmHg 23%
    20:00 +27°C° 0 mm 3 mps 665 mmHg 24%
    21:00 +27°C° 0 mm 4 mps 665 mmHg 25%
    22:00 +26°C° 0 mm 4 mps 666 mmHg 26%
    23:00 +26°C° 0 mm 4 mps 666 mmHg 28%

    23 November, Saturday

    Time Temperature Precipitation Wind Pressure Humidity
    00:00 +25°C° 0 mm 4 mps 666 mmHg 30%
    01:00 +23°C° 0 mm 4 mps 665 mmHg 32%
    02:00 +24°C° 0 mm 3 mps 665 mmHg 34%
    03:00 +22°C° 0 mm 3 mps 665 mmHg 37%
    04:00 +21°C° 0 mm 2 mps 665 mmHg 39%
    05:00 +22°C° 0 mm 3 mps 666 mmHg 35%
    06:00 +24°C° 0 mm 3 mps 666 mmHg 31%
    07:00 +25°C° 0 mm 3 mps 667 mmHg 27%
    08:00 +28°C° 0 mm 3 mps 667 mmHg 22%
    09:00 +30°C° 0 mm 4 mps 668 mmHg 17%
    10:00 +34°C° 0 mm 4 mps 668 mmHg 12%
    11:00 +35°C° 0 mm 4 mps 668 mmHg 11%
    12:00 +36°C° 0 mm 4 mps 667 mmHg 10%
    13:00 +38°C° 0 mm 4 mps 666 mmHg 10%
    14:00 +38°C° 0 mm 4 mps 666 mmHg 10%
    15:00 +38°C° 0 mm 4 mps 665 mmHg 10%
    16:00 +38°C° 0 mm 4 mps 664 mmHg 11%
    17:00 +36°C° 0 mm 3 mps 664 mmHg 12%
    18:00 +34°C° 0 mm 3 mps 664 mmHg 14%
    19:00 +31°C° 0 mm 3 mps 664 mmHg 16%
    20:00 +30°C° 0 mm 3 mps 665 mmHg 16%
    21:00 +29°C° 0 mm 3 mps 665 mmHg 17%
    22:00 +29°C° 0 mm 3 mps 666 mmHg 18%
    23:00 +28°C° 0 mm 4 mps 666 mmHg 20%
    Show more